Location: Joplin
(37.0842°N, 94.5131°W)
Time: 00:37:43
(UTC-06:00)

Envisat - Pass Details

Date: 30 October 2018
Orbit: 764 x 766 km, 98.2° (Epoch: 20 November)

Event Time Altitude Azimuth Distance (km) Brightness Sun altitude
Rises 20:21:23 0° 169° (S) 3,217 6.1 -24.2°
Reaches altitude 10° 20:23:41 10° 171° (S) 2,294 5.4 -24.7°
Maximum altitude 20:28:45 79° 257° (WSW) 784 3.0 -25.7°
Drops below altitude 10° 20:33:51 10° 345° (NNW) 2,308 5.7 -26.7°
Sets 20:36:10 0° 347° (NNW) 3,238 6.4 -27.1°
